Tracking 20083 objects as of 12-Dec-2019
HD Live streaming from Space Station
objects crossing your sky now

FENGYUN 1C DEB

Track FENGYUN 1C DEB now!
10-day predictions


NORAD ID: 36694
Int'l Code: 1999-025DZQ
Perigee: 771.8 km
Apogee: 937.0 km
Inclination: 99.0 °
Period: 101.9 minutes
Semi major axis: 7225 km
RCS: 0.0069 m2 (small)
Launch date: May 10, 1999
Source: People's Republic of China (PRC)
Launch site: Taiyaun Space Center, China (TSC)

Note: This is SATELLITE DEBRIS
aabbcc
Your satellite tracking list
Your tracking list is empty




NASA's NSSDC Master Catalog

Two Line Element Set (TLE):
1 36694U 99025DZQ 19346.08482136  .00000184  00000-0  11432-3 0  9995
2 36694  99.0416 307.7717 0114312  41.4631 319.5145 14.13535230626225
Source of the keplerian elements: AFSPC